Flag for Germany Weather past 2 weeks in Lemgo, North Rhine-Westphalia, Germany

Now
47 °F

Sunny.


Feels Like: 47 °F
Forecast: 38 / 58 °F
Wind: 2 mph from Southwest

Location: Bad Lippspringe

Current Time: Apr 21, 2015 at 9:41:40 AM

Latest Report: Apr 21, 2015 at 9:00 AM


Visibility: 10 mi

Pressure: 30.45 "Hg

Humidity: 74%

Dew point: 39 °F

Location of LemgoLocation

Historic Weather in Lemgo — Graph

°F

Lemgo temperature yesterday

Maximum temperature yesterday: 64 °F (at 5:00 PM)
Minimum temperature yesterday: 36 °F (at 4:00 AM)
Average temperature yesterday: 50 °F

Past Weeks' High & Low Weather Summary

 TemperatureHumidityPressure
High72 °F (Apr 15, 5:00 PM)98% (Apr 9, 5:00 AM)30.64 "Hg (Apr 9, 5:00 AM)
Low28 °F (Apr 7, 6:00 AM)33% (Apr 15, 6:00 PM)29.92 "Hg (Apr 15, 8:00 PM)
Average49 °F68%30.27 "Hg
* Reported Apr 6 8:00 AM — Apr 21 8:00 AM, Lemgo, Weather by CustomWeather, © 2015

Note: Actual official high and low records may vary slightly from our data, if they occured in-between our weather recording intervals... More about our weather records

Advertising

Lemgo weather history for previous 24 hours

 ConditionsComfort  
Time TempWeatherWind HumidityBarometerVisibility
8:00 AM
Tue, Apr 21
41 °FPassing clouds.1 mph83%30.45 "Hg12 mi
7:00 AM34 °FSunny.1 mph95%30.44 "Hg8 mi
6:00 AM35 °FClear.1 mph94%30.42 "Hg9 mi
5:00 AM35 °FClear.1 mph96%30.42 "Hg7 mi
4:00 AM36 °FClear.1 mph95%30.42 "Hg9 mi
3:00 AM38 °FPassing clouds.1 mph91%30.42 "Hg12 mi
2:00 AM38 °FClear.1 mph92%30.42 "Hg19 mi
1:00 AM39 °FClear.2 mph88%30.40 "Hg22 mi
12:00 AM43 °FPassing clouds.2 mph78%30.39 "Hg34 mi
11:00 PM
Mon, Apr 20
46 °FClear.1 mph72%30.38 "Hg34 mi
10:00 PM47 °FClear.1 mph70%30.37 "Hg40 mi
9:00 PM53 °FClear.1 mph54%30.35 "Hg37 mi
8:00 PM60 °FSunny.3 mph39%30.33 "Hg37 mi
7:00 PM63 °FSunny.3 mph38%30.32 "Hg31 mi
6:00 PM64 °FSunny.6 mph38%30.32 "Hg19 mi
5:00 PM64 °FSunny.6 mph41%30.32 "Hg16 mi
4:00 PM62 °FSunny.6 mph39%30.34 "Hg16 mi
3:00 PM62 °FPassing clouds.5 mph41%30.35 "Hg18 mi
2:00 PM60 °FPassing clouds.3 mph40%30.35 "Hg17 mi
1:00 PM59 °FSunny.3 mph39%30.36 "Hg17 mi
12:00 PM57 °FSunny.2 mph42%30.35 "Hg15 mi
11:00 AM56 °FSunny.5 mph42%30.35 "Hg16 mi
10:00 AM51 °FSunny.2 mph62%30.35 "Hg14 mi
9:00 AM48 °FSunny.1 mph63%30.34 "Hg13 mi
Weather by CustomWeather, © 2015

See weather overviewHow to use our weather pages